Pine River, MN

7:07 AM CDT on May 25, 2017 (GMT -0500)
Pine River Regional

Weather History for KPWC - June, 2013

Change the Weather History Date:

Saturday, June 15, 2013

  Actual Average Record
Temperature  
Mean Temperature 65 °F -  
Max Temperature 73 °F 71 °F 84 °F (2003)
Min Temperature 53 °F 50 °F 46 °F (2004)
Growing Degree Days 15 (Base 50)    
Moisture  
Dew Point 52 °F    
Average Humidity 61    
Maximum Humidity 94    
Minimum Humidity 38    
Precipitation  
Precipitation 0.00 in - - ()
Sea Level Pressure  
Sea Level Pressure 29.91 in    
Wind  
Wind Speed 4 mph (SW)    
Max Wind Speed 10 mph    
Max Gust Speed -    
Visibility 10 miles    
Events Rain    
Averages and records for this station are not official NWS values.
T = Trace of Precipitation, MM = Missing Value Source: NWS Daily Summary

Daily Weather History Graph

Daily Weather History Graph

Search for Another Location

Airport or City:

Trip Planner

Search our weather history database for the weather conditions in past years. The results will help you decide how hot, cold, wet, or windy it might be!

Date:

Astronomy

Jun. 15, 2013 Rise Set
Actual Time 5:23 AM CDT 9:13 PM CDT
Civil Twilight 4:43 AM CDT 9:52 PM CDT
Nautical Twilight 3:50 AM CDT 10:46 PM CDT
Astronomical Twilight 2:31 AM CDT 12:04 AM CDT
Moon 12:21 PM CDT (6/15) 12:28 AM CDT (6/15)
Length of Visible Light 17h 09m
Length of Day
15h 50m
Waxing Crescent, 40% of the Moon is Illuminated
Jun 15
Waxing Crescent
Jun 16
First Quarter
Jun 23
Full
Jun 29
Last Quarter
Jul 8
New

Hourly Weather History & Observations

Time (CDT) Temp. Dew Point Humidity Pressure Visibility Wind Dir Wind Speed Gust Speed Precip Events Conditions
12:13 AM 64.4 °F 57.2 °F 77% 29.89 in 10.0 mi SE 5.8 mph - N/A   Clear
12:33 AM 64.4 °F 57.2 °F 77% 29.90 in 10.0 mi SSE 4.6 mph - N/A   Clear
12:53 AM 64.4 °F 57.2 °F 77% 29.90 in 10.0 mi SE 5.8 mph - N/A   Scattered Clouds
1:13 AM 64.4 °F 57.2 °F 77% 29.89 in 10.0 mi ESE 5.8 mph - N/A   Mostly Cloudy
1:33 AM 64.4 °F 57.2 °F 77% 29.90 in 10.0 mi ESE 8.1 mph - N/A   Overcast
1:53 AM 64.4 °F 57.2 °F 77% 29.90 in 10.0 mi ESE 6.9 mph - N/A   Overcast
2:13 AM 64.4 °F 57.2 °F 77% 29.90 in 10.0 mi SE 4.6 mph - N/A   Overcast
2:32 AM 64.4 °F 57.2 °F 77% 29.91 in 10.0 mi SSE 5.8 mph - N/A   Overcast
2:53 AM 64.4 °F 57.2 °F 77% 29.91 in 10.0 mi SSE 4.6 mph - N/A   Overcast
3:12 AM 64.4 °F 57.2 °F 77% 29.90 in 10.0 mi SSE 3.5 mph - N/A   Overcast
3:33 AM 62.6 °F 57.2 °F 82% 29.90 in 10.0 mi SE 3.5 mph - N/A   Overcast
3:53 AM 62.6 °F 57.2 °F 82% 29.89 in 10.0 mi SSE 4.6 mph - N/A   Mostly Cloudy
4:12 AM 62.6 °F 57.2 °F 82% 29.90 in 10.0 mi SSE 4.6 mph - N/A   Overcast
4:32 AM 64.4 °F 57.2 °F 77% 29.90 in 10.0 mi Calm Calm - N/A   Overcast
4:53 AM 62.6 °F 57.2 °F 82% 29.91 in 10.0 mi Calm Calm - N/A   Overcast
5:13 AM 62.6 °F 57.2 °F 82% 29.90 in 10.0 mi Calm Calm - N/A   Mostly Cloudy
5:32 AM 60.8 °F 57.2 °F 88% 29.90 in 10.0 mi Calm Calm - N/A   Scattered Clouds
5:52 AM 59.0 °F 57.2 °F 94% 29.90 in 10.0 mi Calm Calm - N/A   Clear
6:13 AM 59.0 °F 55.4 °F 88% 29.90 in 10.0 mi Calm Calm - N/A   Scattered Clouds
6:33 AM 60.8 °F 57.2 °F 88% 29.90 in 10.0 mi Calm Calm - N/A   Scattered Clouds
6:53 AM 62.6 °F 59.0 °F 88% 29.91 in 10.0 mi Calm Calm - N/A   Mostly Cloudy
7:12 AM 64.4 °F 59.0 °F 83% 29.92 in 10.0 mi Calm Calm - N/A   Overcast
7:33 AM 64.4 °F 60.8 °F 88% 29.93 in 10.0 mi Calm Calm - N/A   Scattered Clouds
7:53 AM 66.2 °F 60.8 °F 83% 29.94 in 10.0 mi Calm Calm - N/A   Clear
8:13 AM 69.8 °F 60.8 °F 73% 29.95 in 10.0 mi WNW 4.6 mph - N/A   Scattered Clouds
8:33 AM 68.0 °F 57.2 °F 68% 29.94 in 10.0 mi NW 5.8 mph - N/A   Scattered Clouds
8:53 AM 68.0 °F 55.4 °F 64% 29.94 in 10.0 mi NW 4.6 mph - N/A   Clear
9:13 AM 69.8 °F 53.6 °F 56% 29.92 in 10.0 mi North 8.1 mph - N/A   Clear
9:33 AM 69.8 °F 51.8 °F 53% 29.94 in 10.0 mi NW 8.1 mph - N/A   Clear
9:53 AM 71.6 °F 50.0 °F 46% 29.94 in 10.0 mi NW 10.4 mph - N/A   Clear
10:12 AM 71.6 °F 46.4 °F 41% 29.94 in 10.0 mi North 9.2 mph - N/A   Clear
10:33 AM 69.8 °F 48.2 °F 46% 29.95 in 10.0 mi North 6.9 mph - N/A   Clear
10:53 AM 69.8 °F 48.2 °F 46% 29.95 in 10.0 mi NW 8.1 mph - N/A   Scattered Clouds
11:13 AM 71.6 °F 46.4 °F 41% 29.95 in 10.0 mi WNW 9.2 mph - N/A   Scattered Clouds
11:33 AM 71.6 °F 46.4 °F 41% 29.95 in 10.0 mi NNW 8.1 mph - N/A   Scattered Clouds
11:52 AM 69.8 °F 46.4 °F 43% 29.95 in 10.0 mi NW 5.8 mph - N/A   Clear
12:13 PM 69.8 °F 46.4 °F 43% 29.95 in 10.0 mi NW 5.8 mph - N/A   Clear
12:33 PM 69.8 °F 48.2 °F 46% 29.95 in 10.0 mi WNW 5.8 mph - N/A   Clear
12:53 PM 69.8 °F 44.6 °F 40% 29.96 in 10.0 mi NW 8.1 mph - N/A   Clear
1:13 PM 68.0 °F 46.4 °F 46% 29.94 in 10.0 mi North 6.9 mph - N/A Rain Light Rain
1:32 PM 66.2 °F 50.0 °F 56% 29.94 in 10.0 mi Calm Calm - N/A   Scattered Clouds
1:53 PM 66.2 °F 50.0 °F 56% 29.95 in 10.0 mi Calm Calm - N/A Rain Light Rain
2:12 PM 66.2 °F 51.8 °F 60% 29.94 in 10.0 mi Calm Calm - N/A Rain Light Rain
2:33 PM 66.2 °F 51.8 °F 60% 29.94 in 10.0 mi Calm Calm - N/A   Scattered Clouds
2:53 PM 66.2 °F 48.2 °F 52% 29.95 in 10.0 mi Calm Calm - N/A   Mostly Cloudy
3:13 PM 66.2 °F 50.0 °F 56% 29.94 in 10.0 mi SSW 3.5 mph - N/A   Scattered Clouds
3:32 PM 69.8 °F 50.0 °F 49% 29.93 in 10.0 mi SW 6.9 mph - N/A   Clear
3:53 PM 68.0 °F 46.4 °F 46% 29.92 in 10.0 mi WSW 3.5 mph - N/A   Clear
4:13 PM 71.6 °F 46.4 °F 41% 29.92 in 10.0 mi Calm Calm - N/A   Clear
4:33 PM 71.6 °F 48.2 °F 43% 29.91 in 10.0 mi South 6.9 mph - N/A   Clear
4:53 PM 71.6 °F 46.4 °F 41% 29.91 in 10.0 mi WSW 3.5 mph - N/A   Clear
5:12 PM 73.4 °F 48.2 °F 41% 29.90 in 10.0 mi SW 5.8 mph - N/A   Clear
5:33 PM 73.4 °F 46.4 °F 38% 29.90 in 10.0 mi SSW 9.2 mph - N/A   Clear
5:53 PM 73.4 °F 46.4 °F 38% 29.89 in 10.0 mi WSW 4.6 mph - N/A   Clear
6:13 PM 73.4 °F 46.4 °F 38% 29.89 in 10.0 mi SW 8.1 mph - N/A   Clear
6:33 PM 73.4 °F 46.4 °F 38% 29.88 in 10.0 mi SW 4.6 mph - N/A   Clear
6:53 PM 73.4 °F 46.4 °F 38% 29.88 in 10.0 mi SW 8.1 mph - N/A   Clear
7:13 PM 73.4 °F 46.4 °F 38% 29.87 in 10.0 mi SW 8.1 mph - N/A   Clear
7:33 PM 73.4 °F 48.2 °F 41% 29.87 in 10.0 mi SW 6.9 mph - N/A   Clear
7:52 PM 73.4 °F 48.2 °F 41% 29.87 in 10.0 mi SSW 6.9 mph - N/A   Clear
8:13 PM 71.6 °F 48.2 °F 43% 29.87 in 10.0 mi SSW 3.5 mph - N/A   Clear
8:33 PM 69.8 °F 48.2 °F 46% 29.87 in 10.0 mi SSW 3.5 mph - N/A   Clear
8:53 PM 68.0 °F 50.0 °F 52% 29.86 in 10.0 mi Calm Calm - N/A   Clear
9:13 PM 66.2 °F 51.8 °F 60% 29.87 in 10.0 mi Calm Calm - N/A   Clear
9:33 PM 64.4 °F 50.0 °F 59% 29.87 in 10.0 mi Calm Calm - N/A   Clear
9:53 PM 62.6 °F 48.2 °F 59% 29.88 in 10.0 mi Calm Calm - N/A   Clear
10:13 PM 62.6 °F 51.8 °F 68% 29.88 in 10.0 mi South 3.5 mph - N/A   Clear
10:33 PM 62.6 °F 46.4 °F 55% 29.89 in 10.0 mi Calm Calm - N/A   Clear
10:53 PM 62.6 °F 46.4 °F 55% 29.89 in 10.0 mi SSW 3.5 mph - N/A   Clear
11:13 PM 62.6 °F 46.4 °F 55% 29.90 in 10.0 mi SW 3.5 mph - N/A   Clear
11:32 PM 57.2 °F 48.2 °F 72% 29.90 in 10.0 mi Calm Calm - N/A   Clear
11:53 PM 53.6 °F 48.2 °F 82% 29.90 in 10.0 mi Calm Calm - N/A   Clear